 ,�O�C���x[��],����1,�O�C���x[��],����2,���ԉ��x[��],����3,���Ԏ��x[��],����4,�m��2(��󒲎�)���x[��],����5,����[��],����6
2003/8/1 0:00,20.7,0,85,0,25,0,74,0,24.7,0,22,0
2003/8/1 0:15,20.7,0,87,0,22.8,0,73,0,24.7,0,22,0
2003/8/1 0:30,20.6,0,88,0,24.9,0,75,0,24.7,0,22.1,0
2003/8/1 0:45,20.4,0,88,0,22.8,0,73,0,24.7,0,22.2,0
2003/8/1 1:00,20.4,0,87,0,25,0,74,0,24.7,0,22.2,0
2003/8/1 1:15,20.4,0,88,0,22.8,0,73,0,24.7,0,22.3,0
2003/8/1 1:30,20.4,0,88,0,25,0,74,0,24.7,0,22.3,0
2003/8/1 1:45,20.3,0,89,0,22.8,0,73,0,24.7,0,23.1,0
2003/8/1 2:00,20.2,0,90,0,25,0,74,0,24.7,0,23.1,0
2003/8/1 2:15,20.1,0,90,0,22.8,0,73,0,24.7,0,23.1,0
2003/8/1 2:30,20.1,0,90,0,24.9,0,74,0,24.7,0,23.2,0
2003/8/1 2:45,20.1,0,90,0,22.7,0,73,0,24.7,0,23.2,0
2003/8/1 3:00,20.1,0,89,0,24.9,0,74,0,24.7,0,23.2,0
2003/8/1 3:15,19.9,0,90,0,22.7,0,73,0,24.7,0,23.3,0
2003/8/1 3:30,19.7,0,91,0,24.8,0,74,0,24.7,0,23.3,0
2003/8/1 3:45,19.6,0,92,0,22.8,0,73,0,24.7,0,23.4,0
2003/8/1 4:00,19.5,0,93,0,24.9,0,73,0,24.7,0,23.4,0
2003/8/1 4:15,19.4,0,94,0,22.7,0,72,0,24.7,0,23.4,0
2003/8/1 4:30,19.4,0,94,0,24.9,0,73,0,24.7,0,23.5,0
2003/8/1 4:45,19.3,0,93,0,22.7,0,72,0,24.7,0,23.5,0
2003/8/1 5:00,19.4,0,92,0,24.8,0,72,0,24.7,0,23.6,0
2003/8/1 5:15,19.6,0,91,0,22.7,0,72,0,24.7,0,23.6,0
2003/8/1 5:30,19.7,0,89,0,24.9,0,72,0,24.6,0,23.6,0
2003/8/1 5:45,19.6,0,89,0,22.7,0,72,0,24.6,0,23.6,0
2003/8/1 6:00,19.6,0,89,0,24.8,0,72,0,24.7,0,23.6,0
2003/8/1 6:15,19.6,0,89,0,22.7,0,73,0,24.7,0,22.7,0
2003/8/1 6:30,19.7,0,88,0,24.6,0,68,0,24.7,0,22.3,0
2003/8/1 6:45,19.8,0,87,0,22.6,0,70,0,24.6,0,22.4,0
2003/8/1 7:00,20.1,0,85,0,24.7,0,69,0,24.6,0,22.4,0
2003/8/1 7:15,20.3,0,85,0,22.4,0,70,0,24.6,0,22.5,0
2003/8/1 7:30,20.6,0,84,0,24.6,0,70,0,24.5,0,22.5,0
2003/8/1 7:45,20.6,0,83,0,22.5,0,70,0,24.5,0,22.6,0
2003/8/1 8:00,20.8,0,82,0,24.7,0,70,0,24.5,0,22.6,0
2003/8/1 8:15,21.1,0,81,0,22.5,0,70,0,24.5,0,22.7,0
2003/8/1 8:30,21.2,0,79,0,24.6,0,70,0,24.5,0,22.7,0
2003/8/1 8:45,21.4,0,79,0,22.5,0,71,0,24.4,0,22.7,0
2003/8/1 9:00,21.6,0,78,0,24.6,0,70,0,24.4,0,22.8,0
2003/8/1 9:15,22.1,0,76,0,22.6,0,70,0,24.4,0,22.8,0
2003/8/1 9:30,22.6,0,73,0,24.7,0,71,0,24.4,0,22.9,0
2003/8/1 9:45,23.2,0,73,0,22.6,0,71,0,24.4,0,22.9,0
2003/8/1 10:00,23.3,0,73,0,24.7,0,70,0,24.5,0,22.9,0
2003/8/1 10:15,23.9,0,71,0,22.7,0,70,0,24.5,0,23,0
2003/8/1 10:30,24,0,69,0,24.8,0,70,0,24.5,0,23,0
2003/8/1 10:45,24,0,70,0,22.7,0,70,0,24.5,0,23.1,0
2003/8/1 11:00,24.2,0,70,0,24.8,0,70,0,24.5,0,23.1,0
2003/8/1 11:15,24,0,71,0,22.7,0,71,0,24.5,0,23.2,0
2003/8/1 11:30,23.8,0,71,0,24.8,0,71,0,24.5,0,23.2,0
2003/8/1 11:45,23.9,0,73,0,22.8,0,70,0,24.5,0,23.2,0
2003/8/1 12:00,23.9,0,74,0,24.8,0,71,0,24.6,0,23.3,0
2003/8/1 12:15,24,0,73,0,22.7,0,71,0,24.6,0,23.3,0
2003/8/1 12:30,23.8,0,72,0,24.8,0,71,0,24.6,0,23.4,0
2003/8/1 12:45,24.3,0,71,0,22.8,0,71,0,24.6,0,23.4,0
2003/8/1 13:00,24.4,0,70,0,24.9,0,70,0,24.6,0,23.4,0
2003/8/1 13:15,24.4,0,71,0,22.8,0,71,0,24.6,0,23.4,0
2003/8/1 13:30,24.5,0,71,0,25,0,71,0,24.6,0,23.5,0
2003/8/1 13:45,24.4,0,71,0,22.9,0,71,0,24.7,0,23.5,0
2003/8/1 14:00,24.5,0,70,0,25,0,71,0,24.7,0,23.6,0
2003/8/1 14:15,24.6,0,69,0,22.9,0,71,0,24.7,0,23.6,0
2003/8/1 14:30,24.9,0,68,0,25,0,71,0,24.7,0,23.6,0
2003/8/1 14:45,25.1,0,69,0,23,0,71,0,24.7,0,23.7,0
2003/8/1 15:00,25.3,0,69,0,25.1,0,72,0,24.8,0,23.7,0
2003/8/1 15:15,25.6,0,68,0,23,0,72,0,24.8,0,23.7,0
2003/8/1 15:30,25.7,0,67,0,25.1,0,72,0,24.8,0,23.8,0
2003/8/1 15:45,25.7,0,69,0,23,0,72,0,24.8,0,23.8,0
2003/8/1 16:00,25.4,0,70,0,25.1,0,72,0,24.9,0,23.8,0
2003/8/1 16:15,24.9,0,71,0,22.9,0,72,0,24.8,0,23.9,0
2003/8/1 16:30,24.7,0,72,0,25,0,73,0,24.8,0,23.9,0
2003/8/1 16:45,24.4,0,73,0,22.9,0,72,0,24.8,0,23.9,0
2003/8/1 17:00,24.3,0,74,0,24.9,0,73,0,24.8,0,24,0
2003/8/1 17:15,24.1,0,75,0,22.8,0,72,0,24.8,0,24,0
2003/8/1 17:30,23.9,0,75,0,24.8,0,72,0,24.8,0,24,0
2003/8/1 17:45,23.7,0,76,0,22.7,0,72,0,24.8,0,24.1,0
2003/8/1 18:00,23.4,0,76,0,24.7,0,72,0,24.8,0,24.1,0
2003/8/1 18:15,23.2,0,78,0,22.7,0,72,0,24.7,0,24.1,0
2003/8/1 18:30,22.9,0,80,0,24.7,0,72,0,24.7,0,24.1,0
2003/8/1 18:45,22.7,0,81,0,22.6,0,72,0,24.7,0,24.2,0
2003/8/1 19:00,22.5,0,81,0,24.7,0,71,0,24.7,0,24.2,0
2003/8/1 19:15,22.3,0,83,0,22.6,0,71,0,24.7,0,24.2,0
2003/8/1 19:30,22,0,84,0,24.6,0,71,0,24.7,0,24.2,0
2003/8/1 19:45,22,0,83,0,22.6,0,71,0,24.6,0,24.3,0
2003/8/1 20:00,22.1,0,82,0,24.7,0,71,0,24.6,0,23.3,0
2003/8/1 20:15,22.1,0,83,0,22.6,0,71,0,24.6,0,23.3,0
2003/8/1 20:30,21.9,0,84,0,24.7,0,71,0,24.6,0,23.4,0
2003/8/1 20:45,21.8,0,84,0,22.7,0,71,0,24.6,0,23.4,0
2003/8/1 21:00,21.8,0,84,0,24.7,0,71,0,24.6,0,23.4,0
2003/8/1 21:15,21.7,0,85,0,22.6,0,71,0,24.6,0,23.4,0
2003/8/1 21:30,21.7,0,86,0,24.7,0,71,0,24.6,0,23.5,0
2003/8/1 21:45,21.5,0,86,0,22.7,0,72,0,24.6,0,23,0
2003/8/1 22:00,21.5,0,86,0,24.9,0,72,0,24.6,0,22.5,0
2003/8/1 22:15,21.6,0,87,0,22.9,0,72,0,24.7,0,22.6,0
2003/8/1 22:30,21.6,0,87,0,24.9,0,73,0,24.7,0,22.6,0
2003/8/1 22:45,21.5,0,88,0,22.8,0,72,0,24.7,0,22.7,0
2003/8/1 23:00,21.5,0,88,0,24.9,0,72,0,24.7,0,22.7,0
2003/8/1 23:15,21.2,0,88,0,22.8,0,72,0,24.7,0,22.8,0
2003/8/1 23:30,21.3,0,87,0,24.9,0,73,0,24.7,0,22.8,0
2003/8/1 23:45,21.3,0,87,0,22.8,0,73,0,24.7,0,22.8,0
2003/8/2 0:00,21.2,0,87,0,24.9,0,74,0,24.7,0,22.9,0
2003/8/2 0:15,21.1,0,88,0,22.8,0,73,0,24.7,0,22.9,0
2003/8/2 0:30,21.1,0,89,0,24.9,0,74,0,24.7,0,23,0
2003/8/2 0:45,21,0,89,0,22.8,0,73,0,24.7,0,23,0
2003/8/2 1:00,21,0,89,0,24.9,0,74,0,24.7,0,23.5,0
2003/8/2 1:15,21,0,89,0,22.8,0,73,0,24.7,0,23.3,0
2003/8/2 1:30,21,0,89,0,25,0,75,0,24.7,0,23.4,0
2003/8/2 1:45,21,0,89,0,23,0,74,0,24.8,0,23.4,0
2003/8/2 2:00,21,0,89,0,25.1,0,75,0,24.8,0,23.4,0
2003/8/2 2:15,20.9,0,90,0,23,0,74,0,24.8,0,23.5,0
2003/8/2 2:30,21,0,90,0,25.2,0,76,0,24.8,0,23.5,0
2003/8/2 2:45,21,0,90,0,23.1,0,74,0,24.8,0,23.5,0
2003/8/2 3:00,21.1,0,89,0,25.2,0,76,0,24.8,0,23.6,0
2003/8/2 3:15,21.1,0,89,0,23.2,0,74,0,24.8,0,23.6,0
2003/8/2 3:30,21.1,0,89,0,25.3,0,76,0,24.8,0,23.6,0
2003/8/2 3:45,21.1,0,90,0,23.2,0,74,0,24.8,0,23.7,0
2003/8/2 4:00,21.1,0,90,0,25.2,0,75,0,24.8,0,23.5,0
2003/8/2 4:15,21.2,0,90,0,23.2,0,75,0,25,0,23.6,0
2003/8/2 4:30,21.2,0,90,0,25.3,0,77,0,25,0,23.6,0
2003/8/2 4:45,21.2,0,89,0,23.2,0,75,0,25,0,23.6,0
2003/8/2 5:00,21.2,0,88,0,25.3,0,76,0,25,0,23.6,0
2003/8/2 5:15,21.3,0,89,0,23.3,0,74,0,25,0,23.7,0
2003/8/2 5:30,21.2,0,89,0,25.3,0,75,0,25,0,23.7,0
2003/8/2 5:45,21.2,0,89,0,23.2,0,74,0,25,0,23.7,0
2003/8/2 6:00,21.3,0,88,0,25.3,0,75,0,25,0,23.8,0
2003/8/2 6:15,21.4,0,87,0,23.1,0,73,0,25,0,23.8,0
2003/8/2 6:30,21.6,0,85,0,25.2,0,74,0,25,0,23.8,0
2003/8/2 6:45,21.9,0,84,0,23.1,0,73,0,24.9,0,23.9,0
2003/8/2 7:00,22.2,0,83,0,25.1,0,74,0,24.9,0,23.9,0
2003/8/2 7:15,22.5,0,81,0,23.1,0,73,0,24.9,0,23.9,0
2003/8/2 7:30,22.8,0,78,0,25.2,0,73,0,24.9,0,23.6,0
2003/8/2 7:45,23.8,0,75,0,23.2,0,72,0,24.9,0,23.6,0
2003/8/2 8:00,24.1,0,72,0,25.3,0,73,0,25,0,23.6,0
2003/8/2 8:15,24.6,0,70,0,23.3,0,72,0,25,0,23.2,0
2003/8/2 8:30,25.2,0,68,0,25.4,0,73,0,24.9,0,23.2,0
2003/8/2 8:45,25.6,0,68,0,23.4,0,74,0,24.7,0,23.3,0
2003/8/2 9:00,25.7,0,68,0,25.4,0,73,0,24.6,0,23.3,0
2003/8/2 9:15,26.4,0,67,0,23.3,0,72,0,24.5,0,23.4,0
2003/8/2 9:30,26.8,0,65,0,25.4,0,74,0,24.5,0,23.4,0
2003/8/2 9:45,27.3,0,63,0,23.4,0,73,0,24.6,0,23.4,0
2003/8/2 10:00,28,0,60,0,25.6,0,74,0,24.7,0,23.5,0
2003/8/2 10:15,28.3,0,60,0,25.9,0,76,0,24.8,0,23.5,0
2003/8/2 10:30,28.4,0,60,0,24.4,0,72,0,24.9,0,22.8,0
2003/8/2 10:45,28.8,0,57,0,26.3,0,74,0,25.1,0,22.6,0
2003/8/2 11:00,29.5,0,54,0,23.6,0,70,0,25.4,0,22.7,0
2003/8/2 11:15,29.7,0,56,0,26.5,0,73,0,25.4,0,22.7,0
2003/8/2 11:30,29.6,0,57,0,21.4,0,70,0,25.6,0,22.8,0
2003/8/2 11:45,29.8,0,57,0,26.8,0,74,0,25.7,0,22.8,0
2003/8/2 12:00,29.8,0,56,0,24,0,71,0,25.9,0,22.9,0
2003/8/2 12:15,29.8,0,55,0,26.8,0,74,0,26,0,23,0
2003/8/2 12:30,29.8,0,54,0,24.4,0,70,0,26.1,0,23,0
2003/8/2 12:45,30.1,0,54,0,27.3,0,71,0,26.3,0,23.1,0
2003/8/2 13:00,30.1,0,53,0,24.2,0,69,0,26.4,0,23.1,0
2003/8/2 13:15,30.5,0,51,0,27.4,0,71,0,26.5,0,23.2,0
2003/8/2 13:30,31.7,0,48,0,22.8,0,69,0,26.5,0,23.3,0
2003/8/2 13:45,31.5,0,49,0,26.6,0,75,0,26.5,0,23.3,0
2003/8/2 14:00,31.9,0,49,0,22.5,0,72,0,26.5,0,23.4,0
2003/8/2 14:15,31.7,0,47,0,26.2,0,76,0,26.6,0,23.4,0
2003/8/2 14:30,31.8,0,45,0,23.4,0,74,0,26.6,0,23.4,0
2003/8/2 14:45,32.7,0,45,0,25.9,0,73,0,26.6,0,23.5,0
2003/8/2 15:00,32.6,0,45,0,23.9,0,73,0,26.6,0,23.5,0
2003/8/2 15:15,33.5,0,42,0,25.5,0,65,0,26.7,0,23.2,0
2003/8/2 15:30,34.1,0,38,0,23.1,0,62,0,26.8,0,23.2,0
2003/8/2 15:45,34.8,0,39,0,25.3,0,62,0,26.8,0,23.4,0
2003/8/2 16:00,34.7,0,40,0,22.3,0,63,0,26.8,0,23.4,0
2003/8/2 16:15,33.9,0,41,0,25.6,0,64,0,26.8,0,23.4,0
2003/8/2 16:30,33.6,0,41,0,19.7,0,68,0,26.8,0,23.5,0
2003/8/2 16:45,33.5,0,42,0,25.5,0,67,0,26.8,0,23.5,0
2003/8/2 17:00,33.3,0,43,0,20.9,0,68,0,26.8,0,23.1,0
2003/8/2 17:15,32.6,0,52,0,25.7,0,68,0,26.8,0,23.1,0
2003/8/2 17:30,31.1,0,61,0,22.1,0,68,0,26.7,0,23.1,0
2003/8/2 17:45,30.3,0,63,0,25.6,0,69,0,26.7,0,23,0
2003/8/2 18:00,30,0,64,0,22,0,67,0,26.6,0,23,0
2003/8/2 18:15,29.6,0,63,0,25.5,0,69,0,26.6,0,23.1,0
2003/8/2 18:30,29.5,0,61,0,20.3,0,69,0,26.5,0,23.1,0
2003/8/2 18:45,30.2,0,61,0,25.4,0,69,0,26.5,0,23.2,0
2003/8/2 19:00,30,0,60,0,21.7,0,68,0,26.4,0,23.4,0
2003/8/2 19:15,29.9,0,60,0,25.4,0,69,0,26.4,0,23.4,0
2003/8/2 19:30,30.1,0,60,0,21.2,0,67,0,26.4,0,23.5,0
2003/8/2 19:45,30.2,0,61,0,25.3,0,69,0,26.3,0,23.5,0
2003/8/2 20:00,30.1,0,61,0,21.7,0,67,0,26.3,0,23.5,0
2003/8/2 20:15,30.2,0,61,0,25.2,0,69,0,26.3,0,23.6,0
2003/8/2 20:30,30.1,0,61,0,21,0,67,0,26.2,0,23.6,0
2003/8/2 20:45,29.9,0,62,0,25.1,0,68,0,26.2,0,23.6,0
2003/8/2 21:00,29.8,0,63,0,21.8,0,67,0,26.1,0,23.7,0
2003/8/2 21:15,29.6,0,62,0,25.1,0,67,0,26,0,23.7,0
2003/8/2 21:30,29.5,0,61,0,21,0,70,0,25.9,0,23.7,0
2003/8/2 21:45,29.4,0,63,0,25.3,0,67,0,25.9,0,23.4,0
2003/8/2 22:00,28.9,0,64,0,21,0,66,0,25.8,0,23.2,0
2003/8/2 22:15,29.3,0,69,0,25.2,0,67,0,25.7,0,23.2,0
2003/8/2 22:30,28.7,0,73,0,23,0,71,0,25.8,0,23.2,0
2003/8/2 22:45,28,0,77,0,25.9,0,74,0,25.9,0,23.3,0
2003/8/2 23:00,27.5,0,81,0,23.9,0,73,0,25.9,0,23.3,0
2003/8/2 23:15,26.2,0,80,0,26,0,77,0,25.9,0,23.4,0
2003/8/2 23:30,26.2,0,79,0,23.9,0,74,0,25.9,0,23.4,0
2003/8/2 23:45,26.2,0,79,0,26.1,0,78,0,25.9,0,23.4,0
2003/8/3 0:00,26.1,0,79,0,24.2,0,75,0,25.9,0,23.5,0
2003/8/3 0:15,26.1,0,79,0,26.1,0,78,0,25.9,0,23.5,0
2003/8/3 0:30,26.2,0,78,0,24.4,0,75,0,25.9,0,23.6,0
2003/8/3 0:45,26.2,0,77,0,26.1,0,78,0,25.9,0,23.6,0
2003/8/3 1:00,26.3,0,76,0,24.3,0,75,0,25.9,0,23.6,0
2003/8/3 1:15,26.2,0,77,0,26.1,0,79,0,25.9,0,23.7,0
2003/8/3 1:30,26.1,0,77,0,24.4,0,75,0,25.9,0,23.7,0
2003/8/3 1:45,26,0,78,0,26.1,0,79,0,25.9,0,23.8,0
2003/8/3 2:00,25.8,0,78,0,24.4,0,75,0,25.9,0,23.8,0
2003/8/3 2:15,25.5,0,79,0,26.1,0,78,0,25.9,0,23.9,0
2003/8/3 2:30,25.3,0,79,0,24.3,0,75,0,25.9,0,23.9,0
2003/8/3 2:45,25.1,0,81,0,26.1,0,78,0,25.9,0,23.9,0
2003/8/3 3:00,25,0,82,0,24.5,0,75,0,25.9,0,24,0
2003/8/3 3:15,25,0,83,0,26.1,0,79,0,25.9,0,24,0
2003/8/3 3:30,24.9,0,83,0,24.5,0,75,0,25.9,0,24.1,0
2003/8/3 3:45,24.9,0,83,0,26.1,0,78,0,25.9,0,24.1,0
2003/8/3 4:00,24.9,0,82,0,24.4,0,75,0,25.9,0,24.1,0
2003/8/3 4:15,24.9,0,82,0,26.2,0,78,0,25.9,0,24.2,0
2003/8/3 4:30,24.8,0,81,0,24.5,0,75,0,25.9,0,24.2,0
2003/8/3 4:45,24.6,0,81,0,26.1,0,78,0,25.9,0,24.3,0
2003/8/3 5:00,24.6,0,81,0,24.5,0,75,0,25.9,0,24.3,0
2003/8/3 5:15,24.5,0,80,0,26.1,0,78,0,25.9,0,24.3,0
2003/8/3 5:30,24.7,0,79,0,24.5,0,75,0,25.9,0,24.4,0
2003/8/3 5:45,24.9,0,78,0,26.2,0,78,0,25.9,0,24.4,0
2003/8/3 6:00,25.2,0,76,0,25,0,80,0,26,0,24.5,0
2003/8/3 6:15,25.5,0,76,0,26.4,0,84,0,26.2,0,24.2,0
2003/8/3 6:30,25.8,0,75,0,24.8,0,78,0,26.1,0,24.2,0
2003/8/3 6:45,26.4,0,72,0,26.4,0,79,0,25.8,0,24.2,0
2003/8/3 7:00,27.2,0,68,0,25.2,0,75,0,25.8,0,24.2,0
2003/8/3 7:15,28,0,68,0,26.8,0,78,0,25.9,0,24.3,0
2003/8/3 7:30,28.5,0,67,0,25.6,0,76,0,26,0,24.3,0
2003/8/3 7:45,29.1,0,64,0,27.1,0,80,0,26,0,23.9,0
2003/8/3 8:00,29.5,0,61,0,25.8,0,76,0,26.1,0,23.9,0
2003/8/3 8:15,30.1,0,58,0,27.4,0,79,0,26.2,0,23.9,0
2003/8/3 8:30,30.7,0,54,0,26,0,75,0,26.3,0,24,0
2003/8/3 8:45,32.6,0,54,0,25.9,0,60,0,26.4,0,24,0
2003/8/3 9:00,32.1,0,53,0,24.8,0,64,0,26.4,0,24.1,0
2003/8/3 9:15,32.7,0,49,0,25.9,0,62,0,26.4,0,24.1,0
2003/8/3 9:30,34.1,0,45,0,24.3,0,62,0,26.5,0,23.5,0
2003/8/3 9:45,34,0,46,0,25.8,0,63,0,26.6,0,23.6,0
2003/8/3 10:00,34.4,0,47,0,24.5,0,66,0,26.7,0,23.6,0
2003/8/3 10:15,34.1,0,44,0,26.2,0,73,0,26.7,0,23.7,0
2003/8/3 10:30,34.6,0,40,0,25,0,74,0,26.9,0,23.8,0
2003/8/3 10:45,34.7,0,43,0,26.4,0,80,0,26.9,0,23.8,0
2003/8/3 11:00,33.7,0,45,0,25.3,0,75,0,27.1,0,23.8,0
2003/8/3 11:15,33.4,0,45,0,26.8,0,77,0,27.1,0,23.9,0
2003/8/3 11:30,33.3,0,45,0,25.5,0,73,0,27.2,0,23.9,0
2003/8/3 11:45,33.4,0,44,0,27,0,77,0,27.3,0,24,0
2003/8/3 12:00,33.5,0,42,0,25.7,0,73,0,27.4,0,24,0
2003/8/3 12:15,33.6,0,40,0,27.1,0,75,0,27.4,0,24.1,0
2003/8/3 12:30,34,0,37,0,25.9,0,72,0,27.6,0,24.1,0
2003/8/3 12:45,34.5,0,38,0,27.4,0,73,0,27.6,0,24.2,0
2003/8/3 13:00,34.5,0,38,0,26.1,0,69,0,27.8,0,24.2,0
2003/8/3 13:15,34.1,0,39,0,27.5,0,72,0,27.8,0,24.3,0
2003/8/3 13:30,34.2,0,39,0,26.2,0,69,0,27.8,0,24.3,0
2003/8/3 13:45,33.9,0,38,0,27.7,0,70,0,28,0,24.3,0
2003/8/3 14:00,33.8,0,37,0,26.3,0,67,0,28.4,0,24.4,0
2003/8/3 14:15,34,0,37,0,27.7,0,68,0,28.5,0,24.4,0
2003/8/3 14:30,33.9,0,37,0,26.3,0,65,0,28.8,0,24.5,0
2003/8/3 14:45,33.9,0,37,0,27.7,0,67,0,28.9,0,24.5,0
2003/8/3 15:00,33.8,0,36,0,26.4,0,64,0,29,0,24.6,0
2003/8/3 15:15,33.9,0,36,0,27.8,0,66,0,29.2,0,24.6,0
2003/8/3 15:30,33.9,0,35,0,26.4,0,64,0,29.3,0,24.7,0
2003/8/3 15:45,33.9,0,34,0,27.9,0,65,0,29.3,0,24.7,0
2003/8/3 16:00,33.9,0,33,0,26.4,0,63,0,29.3,0,24.7,0
2003/8/3 16:15,33.9,0,35,0,27.9,0,65,0,29.3,0,24.8,0
2003/8/3 16:30,33.8,0,36,0,26.5,0,63,0,29.5,0,24.8,0
2003/8/3 16:45,33.6,0,37,0,27.9,0,66,0,29.4,0,24.9,0
2003/8/3 17:00,33.5,0,38,0,26.5,0,65,0,29.4,0,24.9,0
2003/8/3 17:15,33.3,0,39,0,27.9,0,68,0,29.3,0,25,0
2003/8/3 17:30,33.2,0,39,0,26.6,0,65,0,29.5,0,25,0
2003/8/3 17:45,33.1,0,34,0,27.9,0,68,0,29.5,0,25.1,0
2003/8/3 18:00,33.2,0,28,0,26,0,61,0,29.5,0,24.8,0
2003/8/3 18:15,36.7,0,29,0,26.7,0,59,0,29.3,0,24.8,0
2003/8/3 18:30,37.2,0,30,0,25,0,58,0,29,0,24.8,0
2003/8/3 18:45,36.7,0,32,0,26.6,0,62,0,28.8,0,24.5,0
2003/8/3 19:00,35.8,0,33,0,24.7,0,58,0,28.6,0,24.5,0
2003/8/3 19:15,35.5,0,34,0,26,0,55,0,28.4,0,24.5,0
2003/8/3 19:30,34.9,0,35,0,26,0,59,0,28.1,0,24.6,0
2003/8/3 19:45,33.9,0,38,0,26,0,59,0,27.9,0,24.6,0
2003/8/3 20:00,33.1,0,40,0,24.3,0,58,0,27.8,0,24.6,0
2003/8/3 20:15,32.4,0,45,0,26,0,59,0,27.6,0,24.7,0
2003/8/3 20:30,31.9,0,50,0,24,0,64,0,27.5,0,24.7,0
2003/8/3 20:45,31.1,0,51,0,26.5,0,65,0,27.5,0,24.4,0
2003/8/3 21:00,31.4,0,51,0,23.4,0,64,0,27.4,0,24.4,0
2003/8/3 21:15,31.2,0,55,0,26.3,0,65,0,27.4,0,24.4,0
2003/8/3 21:30,30.9,0,59,0,23.6,0,66,0,27.3,0,24.5,0
2003/8/3 21:45,29.8,0,60,0,26.7,0,72,0,27.2,0,24,0
2003/8/3 22:00,29.5,0,61,0,23.4,0,65,0,27.2,0,24,0
2003/8/3 22:15,29.3,0,62,0,27,0,76,0,27.3,0,24.1,0
2003/8/3 22:30,29.1,0,63,0,23.7,0,70,0,27.3,0,24.1,0
2003/8/3 22:45,29,0,65,0,27,0,72,0,27.3,0,24.1,0
2003/8/3 23:00,28.6,0,66,0,23.6,0,69,0,27.3,0,24.3,0
2003/8/3 23:15,28.5,0,66,0,27.1,0,72,0,27.2,0,24.3,0
2003/8/3 23:30,28.4,0,66,0,23.2,0,69,0,27.2,0,24.4,0
2003/8/3 23:45,28.3,0,69,0,27.1,0,72,0,27.2,0,24.4,0
2003/8/4 0:00,27.8,0,71,0,23.2,0,69,0,27.1,0,24.4,0
2003/8/4 0:15,27.8,0,70,0,27.1,0,72,0,27.1,0,24.5,0
2003/8/4 0:30,27.8,0,69,0,23.7,0,69,0,27.1,0,24.5,0
2003/8/4 0:45,27.8,0,69,0,27.1,0,73,0,27.1,0,24.5,0
2003/8/4 1:00,27.8,0,69,0,22.9,0,70,0,27.1,0,24.6,0
2003/8/4 1:15,27.8,0,70,0,27.1,0,73,0,27.1,0,24.6,0
2003/8/4 1:30,27.8,0,70,0,22.8,0,70,0,27.1,0,24.7,0
2003/8/4 1:45,27.7,0,71,0,27.1,0,74,0,27.1,0,24.7,0
2003/8/4 2:00,27.5,0,71,0,22,0,71,0,27.1,0,24.7,0
2003/8/4 2:15,27.3,0,71,0,27.1,0,74,0,27.1,0,24.8,0
2003/8/4 2:30,27.2,0,70,0,26.1,0,71,0,27.1,0,24.8,0
2003/8/4 2:45,27.1,0,71,0,27.1,0,74,0,27.1,0,24.8,0
2003/8/4 3:00,27.1,0,71,0,25.9,0,72,0,27.1,0,24.9,0
2003/8/4 3:15,26.9,0,71,0,27.1,0,74,0,27.1,0,24.9,0
2003/8/4 3:30,26.9,0,71,0,26,0,71,0,27.1,0,24.9,0
2003/8/4 3:45,26.7,0,72,0,27.1,0,74,0,27.1,0,25,0
2003/8/4 4:00,26.5,0,73,0,25.9,0,71,0,27.1,0,25,0
2003/8/4 4:15,26.4,0,73,0,27.1,0,74,0,27.1,0,25,0
2003/8/4 4:30,26.3,0,73,0,25.9,0,71,0,27,0,25.1,0
2003/8/4 4:45,26.2,0,73,0,27.1,0,74,0,27.1,0,25.1,0
2003/8/4 5:00,26.2,0,72,0,25.9,0,73,0,27.1,0,25.2,0
2003/8/4 5:15,26.2,0,73,0,27.3,0,76,0,27.1,0,25.2,0
2003/8/4 5:30,26.2,0,74,0,25.8,0,72,0,27.1,0,25.2,0
2003/8/4 5:45,26,0,62,0,27.2,0,73,0,27.1,0,25.5,0
2003/8/4 6:00,28.5,0,49,0,25,0,62,0,27,0,25.5,0
2003/8/4 6:15,30.8,0,48,0,26.2,0,58,0,26.9,0,25,0
2003/8/4 6:30,31.7,0,46,0,24.4,0,56,0,26.9,0,25,0
2003/8/4 6:45,32.5,0,46,0,26.1,0,54,0,26.8,0,25.1,0
2003/8/4 7:00,32.7,0,46,0,24.6,0,54,0,26.7,0,25.1,0
2003/8/4 7:15,31.9,0,52,0,26.4,0,58,0,26.7,0,25.1,0
2003/8/4 7:30,31.2,0,57,0,25.2,0,59,0,26.6,0,24.1,0
2003/8/4 7:45,29.9,0,55,0,27.2,0,66,0,26.6,0,24.1,0
2003/8/4 8:00,30.2,0,52,0,25.8,0,66,0,26.7,0,24.1,0
2003/8/4 8:15,30.5,0,52,0,27.5,0,70,0,26.8,0,24.2,0
2003/8/4 8:30,31.2,0,52,0,25.9,0,68,0,26.8,0,24.2,0
2003/8/4 8:45,31.8,0,48,0,27.9,0,69,0,26.9,0,24.2,0
2003/8/4 9:00,32.9,0,43,0,26,0,66,0,27,0,24.3,0
2003/8/4 9:15,33.4,0,41,0,28,0,68,0,27.1,0,24.3,0
2003/8/4 9:30,34.3,0,38,0,25.6,0,66,0,27.1,0,24.4,0
2003/8/4 9:45,34.9,0,38,0,28,0,69,0,27.2,0,24.4,0
2003/8/4 10:00,35.5,0,38,0,24.2,0,65,0,27.2,0,24.4,0
2003/8/4 10:15,35.6,0,35,0,28.1,0,69,0,27.3,0,24.5,0
2003/8/4 10:30,36.9,0,32,0,23.8,0,66,0,27.3,0,24.5,0
2003/8/4 10:45,37,0,34,0,28.1,0,69,0,27.4,0,24.5,0
2003/8/4 11:00,36.3,0,35,0,23.4,0,66,0,27.4,0,24.6,0
2003/8/4 11:15,35.6,0,36,0,28.1,0,69,0,27.5,0,24.6,0
2003/8/4 11:30,34.4,0,37,0,23.6,0,66,0,27.5,0,24.7,0
2003/8/4 11:45,34,0,38,0,28.2,0,68,0,27.6,0,24.7,0
2003/8/4 12:00,33.7,0,38,0,23.1,0,66,0,27.6,0,24.8,0
2003/8/4 12:15,33.8,0,37,0,28.2,0,68,0,27.6,0,24.8,0
2003/8/4 12:30,34,0,36,0,23,0,66,0,27.7,0,24.8,0
2003/8/4 12:45,34.3,0,38,0,28.3,0,68,0,27.7,0,24.9,0
2003/8/4 13:00,34.1,0,39,0,22.7,0,66,0,27.8,0,24.9,0
2003/8/4 13:15,34,0,41,0,28.3,0,69,0,27.8,0,25,0
2003/8/4 13:30,33.7,0,42,0,22.9,0,67,0,27.9,0,25,0
2003/8/4 13:45,33.6,0,42,0,28.4,0,69,0,27.9,0,25,0
2003/8/4 14:00,33.4,0,42,0,25.7,0,66,0,28,0,25.1,0
2003/8/4 14:15,33.5,0,42,0,28.4,0,69,0,28,0,25.2,0
2003/8/4 14:30,32.9,0,42,0,25.8,0,67,0,28,0,25.2,0
2003/8/4 14:45,32.9,0,43,0,28.4,0,69,0,28,0,25.3,0
2003/8/4 15:00,32.7,0,43,0,25.9,0,67,0,28,0,25.3,0
2003/8/4 15:15,32.7,0,45,0,28.4,0,69,0,28,0,25.4,0
2003/8/4 15:30,32.3,0,46,0,26,0,67,0,28,0,25.4,0
2003/8/4 15:45,32,0,48,0,28.5,0,69,0,28,0,25.4,0
2003/8/4 16:00,31.8,0,49,0,26,0,67,0,28.1,0,25.5,0
2003/8/4 16:15,31.7,0,50,0,28.5,0,70,0,28.1,0,25.5,0
2003/8/4 16:30,31.5,0,50,0,26,0,67,0,28.1,0,25.6,0
2003/8/4 16:45,31.5,0,50,0,28.5,0,70,0,28.1,0,25.6,0
2003/8/4 17:00,31.5,0,49,0,25.9,0,68,0,28.1,0,25.7,0
2003/8/4 17:15,31.3,0,52,0,28.5,0,70,0,28.1,0,25.7,0
2003/8/4 17:30,31.1,0,54,0,26,0,68,0,28.1,0,25.8,0
2003/8/4 17:45,30.8,0,56,0,28.4,0,71,0,28.1,0,25.8,0
2003/8/4 18:00,30.6,0,58,0,26,0,68,0,28.1,0,25.9,0
2003/8/4 18:15,30.6,0,60,0,28.4,0,72,0,28.1,0,25.9,0
2003/8/4 18:30,30.2,0,61,0,26,0,69,0,28.1,0,25.9,0
2003/8/4 18:45,29.9,0,64,0,28.4,0,72,0,28.1,0,26,0
2003/8/4 19:00,29.7,0,66,0,26,0,69,0,28.1,0,26,0
2003/8/4 19:15,29.4,0,65,0,28.3,0,73,0,28.1,0,26.1,0
2003/8/4 19:30,29.2,0,64,0,25.8,0,69,0,28.1,0,26.1,0
2003/8/4 19:45,29.3,0,59,0,28.3,0,73,0,28.1,0,26.1,0
2003/8/4 20:00,29,0,54,0,26,0,70,0,28.1,0,26.2,0
2003/8/4 20:15,31.3,0,58,0,27.6,0,67,0,28,0,26.2,0
2003/8/4 20:30,30.8,0,62,0,25.4,0,66,0,27.9,0,26.3,0
2003/8/4 20:45,32,0,56,0,27.1,0,59,0,27.8,0,26.3,0
2003/8/4 21:00,32.7,0,50,0,24.4,0,55,0,27.7,0,26.3,0
2003/8/4 21:15,33.1,0,53,0,26.3,0,52,0,27.6,0,26.4,0
2003/8/4 21:30,32.5,0,56,0,24.2,0,54,0,27.5,0,26.4,0
2003/8/4 21:45,31.3,0,57,0,26.6,0,58,0,27.3,0,25.5,0
2003/8/4 22:00,31,0,57,0,24.5,0,58,0,27.2,0,25.6,0
2003/8/4 22:15,31,0,63,0,26.7,0,60,0,27.2,0,25.6,0
2003/8/4 22:30,29.7,0,68,0,24.9,0,66,0,27.2,0,25.6,0
2003/8/4 22:45,29,0,69,0,27.3,0,72,0,27.3,0,25.6,0
2003/8/4 23:00,28.5,0,70,0,25.1,0,70,0,27.3,0,25.7,0
2003/8/4 23:15,28.2,0,71,0,27.4,0,72,0,27.2,0,25.7,0
2003/8/4 23:30,28.1,0,71,0,25.3,0,67,0,27.2,0,25.7,0
2003/8/4 23:45,28.1,0,73,0,27.6,0,68,0,27.3,0,25.8,0
2003/8/5 0:00,28.1,0,74,0,25.3,0,65,0,27.3,0,25.8,0
2003/8/5 0:15,27.8,0,76,0,27.6,0,69,0,27.3,0,25.8,0
2003/8/5 0:30,27.7,0,78,0,25.4,0,67,0,27.3,0,25.8,0
2003/8/5 0:45,27.7,0,78,0,27.8,0,70,0,27.3,0,25.9,0
2003/8/5 1:00,27.6,0,78,0,25.4,0,68,0,27.3,0,25.9,0
2003/8/5 1:15,27.6,0,78,0,27.8,0,72,0,27.3,0,25.9,0
2003/8/5 1:30,27.6,0,78,0,25.4,0,69,0,27.4,0,26,0
2003/8/5 1:45,27.4,0,78,0,27.8,0,72,0,27.4,0,26,0
2003/8/5 2:00,27.4,0,78,0,25.5,0,70,0,27.4,0,26,0
2003/8/5 2:15,27.5,0,78,0,27.8,0,73,0,27.4,0,26,0
2003/8/5 2:30,27.5,0,78,0,25.5,0,70,0,27.4,0,26.1,0
2003/8/5 2:45,27.4,0,79,0,27.9,0,73,0,27.4,0,26.1,0
2003/8/5 3:00,27.3,0,79,0,25.5,0,70,0,27.4,0,26.1,0
2003/8/5 3:15,27.2,0,80,0,27.9,0,73,0,27.4,0,26.1,0
2003/8/5 3:30,27.1,0,80,0,25.5,0,70,0,27.5,0,26.2,0
2003/8/5 3:45,27.1,0,80,0,27.9,0,74,0,27.5,0,26.2,0
2003/8/5 4:00,27,0,80,0,25.6,0,70,0,27.5,0,26.2,0
2003/8/5 4:15,26.9,0,83,0,27.9,0,73,0,27.5,0,26.3,0
2003/8/5 4:30,26.6,0,86,0,25.5,0,70,0,27.5,0,26.3,0
2003/8/5 4:45,26.4,0,86,0,27.9,0,74,0,27.5,0,26.3,0
2003/8/5 5:00,26.4,0,85,0,25.5,0,70,0,27.5,0,26.3,0
2003/8/5 5:15,26.4,0,84,0,27.9,0,74,0,27.5,0,26.4,0
2003/8/5 5:30,26.5,0,83,0,25.5,0,71,0,27.5,0,26.4,0
2003/8/5 5:45,26.7,0,71,0,27.9,0,74,0,27.5,0,26.7,0
2003/8/5 6:00,27.8,0,59,0,25.1,0,63,0,27.5,0,26.6,0
2003/8/5 6:15,30,0,61,0,26.9,0,62,0,27.5,0,26.7,0
2003/8/5 6:30,30.7,0,62,0,24.4,0,61,0,27.4,0,26.7,0
2003/8/5 6:45,29.8,0,65,0,26.8,0,61,0,27.3,0,26.7,0
2003/8/5 7:00,29.6,0,67,0,24.4,0,61,0,27.3,0,26.7,0
2003/8/5 7:15,29.2,0,71,0,26.7,0,65,0,27.2,0,26.7,0
2003/8/5 7:30,29.3,0,74,0,24.6,0,67,0,27.2,0,26.7,0
2003/8/5 7:45,28.6,0,75,0,27.3,0,74,0,27.3,0,25.9,0
2003/8/5 8:00,28.5,0,76,0,25.1,0,73,0,27.3,0,25.9,0
2003/8/5 8:15,28.4,0,76,0,27.5,0,78,0,27.3,0,26,0
2003/8/5 8:30,28.3,0,75,0,25.5,0,75,0,27.4,0,26,0
2003/8/5 8:45,28.2,0,76,0,27.6,0,79,0,27.5,0,26,0
2003/8/5 9:00,27.9,0,76,0,25.7,0,74,0,27.5,0,26.1,0
2003/8/5 9:15,27.8,0,77,0,27.7,0,79,0,27.5,0,26.1,0
2003/8/5 9:30,27.9,0,77,0,25.8,0,75,0,27.6,0,26.1,0
2003/8/5 9:45,28.1,0,73,0,27.9,0,79,0,27.6,0,26.1,0
2003/8/5 10:00,28.6,0,69,0,26,0,75,0,27.6,0,26.2,0
2003/8/5 10:15,28.9,0,67,0,28,0,79,0,27.6,0,26.2,0
2003/8/5 10:30,29.2,0,65,0,26.1,0,74,0,27.7,0,26.2,0
2003/8/5 10:45,29.3,0,62,0,28.1,0,78,0,27.7,0,26.2,0
2003/8/5 11:00,29.6,0,58,0,26.1,0,74,0,27.7,0,26.3,0
2003/8/5 11:15,29.8,0,58,0,28.1,0,78,0,27.8,0,26.3,0
2003/8/5 11:30,30.2,0,57,0,26.2,0,74,0,27.8,0,26.3,0
2003/8/5 11:45,30.9,0,57,0,28.2,0,77,0,27.8,0,26.4,0
2003/8/5 12:00,30.7,0,56,0,26.3,0,73,0,27.8,0,26.4,0
2003/8/5 12:15,30.8,0,55,0,28.3,0,77,0,27.8,0,26.4,0
2003/8/5 12:30,31.2,0,54,0,26.4,0,73,0,27.9,0,26.4,0
2003/8/5 12:45,31.3,0,54,0,28.4,0,76,0,27.9,0,26.5,0
2003/8/5 13:00,31.4,0,54,0,26.4,0,73,0,27.9,0,26.5,0
2003/8/5 13:15,31.4,0,55,0,28.4,0,76,0,28,0,26.5,0
2003/8/5 13:30,31.5,0,55,0,26.4,0,73,0,28,0,26.6,0
2003/8/5 13:45,31.3,0,53,0,28.5,0,76,0,28,0,26.6,0
2003/8/5 14:00,31.5,0,51,0,26.5,0,73,0,28,0,26.6,0
2003/8/5 14:15,31.4,0,52,0,28.5,0,76,0,28,0,26.6,0
2003/8/5 14:30,31.3,0,52,0,26.5,0,72,0,28.1,0,26.7,0
2003/8/5 14:45,31.1,0,62,0,28.5,0,75,0,28.1,0,26.7,0
2003/8/5 15:00,30.4,0,72,0,26.4,0,73,0,28.1,0,26.7,0
2003/8/5 15:15,28.9,0,71,0,28.5,0,76,0,28.1,0,26.8,0
2003/8/5 15:30,27.5,0,70,0,26.5,0,73,0,28.1,0,26.8,0
2003/8/5 15:45,27.7,0,70,0,28.3,0,77,0,28.1,0,26.8,0
2003/8/5 16:00,27.9,0,70,0,26.3,0,73,0,28.1,0,26.8,0
2003/8/5 16:15,27.9,0,72,0,28.3,0,77,0,28.1,0,26.9,0
2003/8/5 16:30,27.5,0,73,0,26.3,0,73,0,28.1,0,26.9,0
2003/8/5 16:45,27.7,0,75,0,28.3,0,77,0,28.1,0,26.9,0